Regional Weather Roundup
Issued by NWS

Home | Current Version | Previous Version | Text Only | Print | Product List | Glossary On
Versions: 1 2 3 4 5 6 7 8 9 10 11 12 13 14 15 16 17 18 19 20 21 22 23 24 25 26 27 28 29 30 31 32 33 34 35 36 37 38 39 40 41 42 43 44 45 46 47 48 49 50
000
ASUS43 KLMK 311910
RWRKY
KENTUCKY REGIONAL WEATHER ROUNDUP
NATIONAL WEATHER SERVICE LOUISVILLE KY
300 PM EDT FRI OCT 31 2014

NOTE "FAIR" INDICATES FEW OR NO CLOUDS BELOW 12,000 FEET
WITH NO SIGNIFICANT WEATHER AND/OR OBSTRUCTIONS TO VISIBILITY.

KYZ001>023-026-027-061>063-070>075-312000-
WESTERN AND SOUTH CENTRAL KENTUCKY

CITY           SKY/WX    TMP DP  RH WIND       PRES   REMARKS
PADUCAH        MOSUNNY   49  26  41 N18G29    30.16R
HENDERSON      PTSUNNY   46  25  42 NW17G29   30.12R
OWENSBORO      PTSUNNY   47  29  50 NW22G29   30.09R
HOPKINSVILLE   DRIZZLE   41  37  83 N8G18     30.08S
BOWLING GREEN  CLOUDY    43  39  86 NW8       30.04R FOG
GLASGOW        LGT RAIN  45  41  86 NW13G20   29.99R
$$

KYZ024-025-028>034-038-045-046-053-312000-
NORTH CENTRAL KENTUCKY

CITY           SKY/WX    TMP DP  RH WIND       PRES   REMARKS
LOUISVILLE/SDF LGT RAIN  42  37  82 NW17G25   29.99S
LOUISVILLE/LOU LGT RAIN  42  37  82 N12G18    30.00R
FORT KNOX      CLOUDY    39  36  87 NW12G18   29.99S WCI  32
$$

KYZ035>037-039>044-047>052-055>060-089>105-312000-
NORTHEAST KENTUCKY

CITY           SKY/WX    TMP DP  RH WIND       PRES   REMARKS
LEXINGTON      LGT RAIN  47  42  83 NW15G22   29.90F
COVINGTON      LGT RAIN  41  38  89 NW21      29.92S FOG
FRANKFORT      LGT RAIN  42  38  85 NW18G32   29.93R FOG
$$

KYZ054-064>069-076>088-106>120-312000-
SOUTHEAST KENTUCKY

CITY           SKY/WX    TMP DP  RH WIND       PRES   REMARKS
JACKSON        CLOUDY    45  42  89 CALM      29.88F
LONDON         CLOUDY    46  42  86 W8        29.90F FOG
SOMERSET       CLOUDY    45  43  93 W5        29.93F
MIDDLESBORO    CLOUDY    46  43  91 CALM      29.91F
MONTICELLO     CLOUDY    48  45  90 W5        29.95S
$$




USA.gov is the U.S. government's official web portal to all federal, state and local government web resources and services.